Flag for U.S.A. Weather past 2 weeks in Richmond, Virginia, U.S.A.

Now
86 °F

Passing clouds.


Feels Like: 86 °F
Forecast: 62 / 86 °F
Wind: 15 mph from Southwest

Location: Richmond International Airport

Current Time: Sep 21, 2014 at 6:47:07 PM

Latest Report: Sep 21, 2014 at 5:54 PM


Visibility: 10 mi

Pressure: 29.70 "Hg

Humidity: 42%

Dew point: 60 °F

Location of RichmondLocation

Historic Weather in Richmond — Graph

°F

Richmond temperature yesterday

Maximum temperature yesterday: 84 °F (at 2:54 PM)
Minimum temperature yesterday: 58 °F (at 6:54 AM)
Average temperature yesterday: 69 °F

Past Weeks' High & Low Weather Summary

 TemperatureHumidityPressure
High92 °F (Sep 6, 4:54 PM)96% (Sep 11, 5:54 AM)30.32 "Hg (Sep 11, 5:54 AM)
Low57 °F (Sep 14, 5:54 AM)32% (Sep 21, 3:54 PM)29.71 "Hg (Sep 21, 4:54 PM)
Average71 °F73%30.09 "Hg
* Reported Sep 6 4:54 PM — Sep 21 4:54 PM, Richmond, Weather by CustomWeather, © 2014

Note: Actual official high and low records may vary slightly from our data, if they occured in-between our weather recording intervals... More about our weather records

Advertising

Richmond weather history for previous 24 hours

 ConditionsComfort  
Time TempWeatherWind HumidityBarometerVisibility
4:54 PM
Sep 21
89 °FScattered clouds.8 mph34%29.71 "Hg10 mi
3:54 PM90 °FScattered clouds.14 mph32%29.72 "Hg10 mi
2:54 PM87 °FScattered clouds.3 mph35%29.73 "Hg10 mi
1:54 PM87 °FScattered clouds.3 mph36%29.77 "Hg10 mi
12:54 PM82 °FScattered clouds.No wind48%29.81 "Hg10 mi
11:54 AM78 °FPartly sunny.8 mph56%29.85 "Hg10 mi
10:54 AM75 °FBroken clouds.10 mph64%29.87 "Hg10 mi
9:54 AM71 °FBroken clouds.7 mph76%29.88 "Hg10 mi
8:54 AM65 °FBroken clouds.No wind91%29.89 "Hg10 mi
7:54 AM64 °FPartly cloudy.3 mph90%29.89 "Hg9 mi
6:54 AM63 °FPassing clouds.6 mph93%29.90 "Hg10 mi
5:54 AM63 °FHigh level clouds.6 mph93%29.88 "Hg10 mi
4:54 AM64 °FHigh level clouds.5 mph94%29.91 "Hg10 mi
3:54 AM65 °FPassing clouds.5 mph91%29.93 "Hg10 mi
2:54 AM66 °FPassing clouds.No wind87%29.96 "Hg10 mi
1:54 AM67 °FMostly cloudy.7 mph87%29.98 "Hg10 mi
12:54 AM66 °FPassing clouds.5 mph90%30.02 "Hg10 mi
11:54 PM
Sep 20
67 °FPassing clouds.3 mph87%30.04 "Hg10 mi
10:54 PM67 °FPassing clouds.3 mph87%30.04 "Hg10 mi
9:54 PM68 °FPassing clouds.5 mph84%30.05 "Hg10 mi
8:54 PM69 °FPassing clouds.6 mph81%30.06 "Hg10 mi
7:54 PM71 °FPartly sunny.6 mph76%30.07 "Hg10 mi
6:54 PM74 °FPartly sunny.8 mph67%30.08 "Hg10 mi
Weather by CustomWeather, © 2014

See weather overviewHow to use our weather pages